This is the latest recevied weather packets stored in our database for station/object OK2IGL-6. If no packets are shown the sender has not sent any weather packets the latest 1 day(s).
| Time | Temp. | Humidity | Pressure | Rain* | Wind** | Luminosity | Snow |
|---|---|---|---|---|---|---|---|
| 1777955291 | 12.22° C | 65% | 1007 hPa | - | 0 m/s | - | - |
| 1777954862 | 11.67° C | 67% | 1006 hPa | - | 0 m/s | - | - |
| 1777954432 | 12.22° C | 67% | 1006 hPa | - | 0 m/s | - | - |
| 1777954003 | 12.22° C | 65% | 1007 hPa | - | 0 m/s | - | - |
| 1777953574 | 12.22° C | 65% | 1006 hPa | - | 0 m/s | - | - |
| 1777953144 | 12.22° C | 65% | 1007 hPa | - | 0 m/s | - | - |
| 1777952715 | 12.22° C | 64% | 1006 hPa | - | 0 m/s | - | - |
| 1777952285 | 12.22° C | 61% | 1006 hPa | - | 0 m/s | - | - |
| 1777951856 | 12.78° C | 61% | 1007 hPa | - | 0 m/s | - | - |
| 1777951426 | 12.78° C | 62% | 1006 hPa | - | 0 m/s | - | - |
| 1777950836 | 13.33° C | 59% | 1006 hPa | - | 0 m/s | - | - |
| 1777950406 | 13.33° C | 60% | 1006 hPa | - | 0 m/s | - | - |
| 1777949977 | 13.33° C | 57% | 1006 hPa | - | 0 m/s | - | - |
| 1777949547 | 13.33° C | 57% | 1006 hPa | - | 0 m/s | - | - |
| 1777949118 | 13.33° C | 60% | 1006 hPa | - | 0 m/s | - | - |
| 1777948689 | 13.33° C | 59% | 1005 hPa | - | 0 m/s | - | - |
| 1777948259 | 13.33° C | 59% | 1006 hPa | - | 0 m/s | - | - |
| 1777947830 | 13.89° C | 58% | 1006 hPa | - | 0 m/s | - | - |
| 1777947400 | 14.44° C | 56% | 1006 hPa | - | 0 m/s | - | - |
| 1777946971 | 14.44° C | 55% | 1006 hPa | - | 0 m/s | - | - |
| 1777946541 | 15° C | 55% | 1006 hPa | - | 0 m/s | - | - |
| 1777946112 | 15° C | 52% | 1006 hPa | - | 0 m/s | - | - |
* Rain since midnight (hover to see other rain measurements)
** Current wind speed in m/s (hover to see current wind gust speed)